Overview Statistics Trail Chart Weather Telemetry Raw packets
 

This is the latest recevied weather packets stored in our database for station/object N9DMT-13. If no packets are shown the sender has not sent any weather packets the latest 10 day(s).

<< 32 33 34 35 36 37 38 >>
Time Temp. Humidity Pressure Rain* Wind** Luminosity Snow
1777672412 12.22° C 33% 984.8 hPa 0 mm - - -
1777672111 12.22° C 34% 984.8 hPa 0 mm - - -
1777671811 12.22° C 33% 984.9 hPa 0 mm - - -
1777671510 11.67° C 34% 984.7 hPa 0 mm - - -
1777671209 11.11° C 35% 984.8 hPa 0 mm - - -
1777670908 11.11° C 34% 984.8 hPa 0 mm - - -
1777670608 12.22° C 35% 984.8 hPa 0 mm - - -
1777670307 13.33° C 31% 984.8 hPa 0 mm - - -
1777670006 12.78° C 33% 984.6 hPa 0 mm - - -
1777669705 11.67° C 33% 984.8 hPa 0 mm - - -
1777669405 11.11° C 36% 984.6 hPa 0 mm - - -
1777669104 10.56° C 37% 984.7 hPa 0 mm - - -
1777668803 11.11° C 37% 984.8 hPa 0 mm - - -
1777668502 11.11° C 35% 984.7 hPa 0 mm - - -
1777668202 11.11° C 34% 984.8 hPa 0 mm - - -
1777667901 10.56° C 35% 984.8 hPa 0 mm - - -
1777667600 10.56° C 35% 984.8 hPa 0 mm - - -
1777667299 11.11° C 35% 984.6 hPa 0 mm - - -
1777666998 11.11° C 37% 985 hPa 0 mm - - -
1777666704 11.11° C 36% 984.9 hPa 0 mm - - -
1777666397 11.67° C 34% 984.8 hPa 0 mm - - -
1777666096 13.33° C 34% 984.8 hPa 0 mm - - -
1777665796 12.78° C 34% 984.8 hPa 0 mm - - -
1777665495 11.67° C 35% 984.8 hPa 0 mm - - -
1777665194 11.67° C 38% 985 hPa 0 mm - - -

* Rain latest hour (hover to see other rain measurements)
** Current wind speed in m/s (hover to see current wind gust speed)